YO6IKB-10 Weather Reports


time (UTC)temp
F
wind
direction
speed
knots
gust
knots
rain 1hr
in
rain 24hr
in
rain mn
in
humidity
%
barometer
mb
20240222100638 49 337 1.7 2.6 0.00 0.00 0.00 64 1012.5
20240222100137 49 0 0.0 2.6 0.00 0.00 0.00 63 1012.4
20240222095637 49 292 0.0 3.5 0.00 0.00 0.00 65 1012.6
20240222095137 49 0 0.9 3.5 0.00 0.00 0.00 64 1012.6
20240222094636 50 0 3.5 3.5 0.00 0.00 0.00 66 1012.7
20240222094136 50 315 0.0 5.2 0.00 0.00 0.00 69 1012.8
20240222093636 48 292 3.5 4.3 0.00 0.00 0.00 70 1012.9
20240222093135 47 292 3.5 3.5 0.00 0.00 0.00 70 1012.9
20240222092635 46 292 1.7 3.5 0.00 0.00 0.00 69 1013.0
20240222092135 46 337 2.6 2.6 0.00 0.00 0.00 70 1013.0
20240222091635 45 315 1.7 3.5 0.00 0.00 0.00 69 1013.1
20240222091134 45 315 1.7 4.3 0.00 0.00 0.00 70 1013.1
20240222090634 45 22 0.0 4.3 0.00 0.00 0.00 71 1013.1
20240222090134 45 315 0.9 1.7 0.00 0.00 0.00 72 1013.1
20240222085633 44 315 0.0 2.6 0.00 0.00 0.00 71 1013.1
20240222085133 44 0 2.6 4.3 0.00 0.00 0.00 71 1013.1
20240222084633 44 315 2.6 4.3 0.00 0.00 0.00 72 1013.1
20240222084133 44 67 2.6 4.3 0.00 0.00 0.00 72 1013.2
20240222083632 44 315 0.0 4.3 0.00 0.00 0.00 72 1013.3
20240222083132 44 0 0.9 3.5 0.00 0.00 0.00 73 1013.4
20240222082632 44 0 1.7 3.5 0.00 0.00 0.00 73 1013.5
20240222082131 44 315 0.9 3.5 0.00 0.00 0.00 73 1013.5
20240222081631 44 0 2.6 3.5 0.00 0.00 0.00 73 1013.6
20240222081131 44 0 0.9 2.6 0.00 0.00 0.00 73 1013.6
20240222080631 44 22 1.7 2.6 0.00 0.00 0.00 74 1013.6
20240222080130 44 22 1.7 2.6 0.00 0.00 0.00 74 1013.6
20240222075630 44 22 0.0 1.7 0.00 0.00 0.00 74 1013.7
20240222075130 44 22 0.9 2.6 0.00 0.00 0.00 74 1013.7
20240222074629 44 67 2.6 2.6 0.00 0.00 0.00 75 1013.8
20240222074129 44 112 0.0 0.0 0.00 0.00 0.00 77 1013.9
20240222073629 44 112 0.0 0.9 0.00 0.00 0.00 78 1013.9
20240222073128 43 112 0.0 1.7 0.00 0.00 0.00 79 1013.9
20240222072628 43 112 0.0 0.0 0.00 0.00 0.00 80 1013.9
20240222072128 42 112 0.0 1.7 0.00 0.00 0.00 81 1013.9
20240222071628 42 112 0.0 1.7 0.00 0.00 0.00 81 1014.0
20240222071127 41 112 0.0 2.6 0.00 0.00 0.00 82 1014.0
20240222070627 41 112 2.6 2.6 0.00 0.00 0.00 83 1014.1
20240222070127 41 112 0.0 0.9 0.00 0.00 0.00 84 1014.0
20240222065626 41 112 0.0 0.9 0.00 0.00 0.00 85 1014.1
20240222065126 40 112 0.0 1.7 0.00 0.00 0.00 86 1014.1
20240222064626 40 112 0.9 0.9 0.00 0.00 0.00 86 1014.1
20240222064126 39 112 0.0 0.9 0.00 0.00 0.00 87 1014.2
20240222063625 39 112 0.0 0.0 0.00 0.00 0.00 87 1014.1
20240222063125 38 112 0.0 0.0 0.00 0.00 0.00 87 1014.1
20240222062625 38 112 0.0 0.0 0.00 0.00 0.00 87 1014.2
20240222062124 37 112 0.0 0.0 0.00 0.00 0.00 87 1014.2
20240222061624 37 112 0.0 0.9 0.00 0.00 0.00 87 1014.3
20240222061124 37 112 0.0 0.9 0.00 0.00 0.00 86 1014.3
20240222060623 36 112 0.0 0.0 0.00 0.00 0.00 86 1014.3
20240222060123 35 112 0.0 0.0 0.00 0.00 0.00 86 1014.4
20240222055623 35 112 0.0 0.0 0.00 0.00 0.00 86 1014.4
20240222055123 34 112 0.0 0.0 0.00 0.00 0.00 86 1014.4
20240222054622 34 112 0.0 0.0 0.00 0.00 0.00 85 1014.4
20240222054122 33 112 0.0 0.0 0.00 0.00 0.00 85 1014.3
20240222053622 33 112 0.0 0.9 0.00 0.00 0.00 85 1014.4
20240222053121 33 112 0.0 0.0 0.00 0.00 0.00 85 1014.3
20240222052621 33 112 0.0 0.9 0.00 0.00 0.00 85 1014.3
20240222052121 33 112 0.0 1.7 0.00 0.00 0.00 85 1014.4
20240222051621 33 90 1.7 2.6 0.00 0.00 0.00 85 1014.3
20240222051120 34 90 0.9 2.6 0.00 0.00 0.00 84 1014.3
20240222050620 34 90 0.0 2.6 0.00 0.00 0.00 84 1014.2
20240222050120 34 90 0.0 0.0 0.00 0.00 0.00 84 1014.2
20240222045619 34 90 0.0 0.9 0.00 0.00 0.00 84 1014.0
20240222045119 35 90 0.0 0.9 0.00 0.00 0.00 84 1014.0
20240222044619 35 90 0.0 0.0 0.00 0.00 0.00 84 1014.1
20240222044118 35 90 0.0 0.9 0.00 0.00 0.00 84 1014.2
20240222043618 35 90 0.0 0.9 0.00 0.00 0.00 84 1014.2
20240222043118 35 90 0.0 0.9 0.00 0.00 0.00 84 1014.3
20240222042618 35 90 0.9 0.9 0.00 0.00 0.00 84 1014.2
20240222042117 35 90 0.9 0.9 0.00 0.00 0.00 84 1014.3
20240222041617 35 90 0.9 0.9 0.00 0.00 0.00 84 1014.2
20240222041117 36 90 0.9 1.7 0.00 0.00 0.00 84 1014.3
20240222040616 36 90 0.9 1.7 0.00 0.00 0.00 83 1014.2
20240222040116 36 90 0.9 0.9 0.00 0.00 0.00 84 1014.3
20240222035616 36 90 0.0 0.9 0.00 0.00 0.00 84 1014.4
20240222035116 36 90 0.0 0.9 0.00 0.00 0.00 84 1014.5
20240222034615 36 90 0.0 0.9 0.00 0.00 0.00 84 1014.5
20240222034115 36 90 0.0 0.9 0.00 0.00 0.00 84 1014.6
20240222033615 36 90 0.0 0.9 0.00 0.00 0.00 84 1014.6
20240222033114 36 90 0.9 0.9 0.00 0.00 0.00 84 1014.6
20240222032614 36 90 0.0 0.9 0.00 0.00 0.00 84 1014.7
20240222032114 36 90 0.9 0.9 0.00 0.00 0.00 84 1014.6
20240222031614 36 90 0.0 0.9 0.00 0.00 0.00 84 1014.7
20240222031113 36 90 0.0 0.9 0.00 0.00 0.00 84 1014.8
20240222030613 36 90 0.9 0.9 0.00 0.00 0.00 84 1014.8
20240222030113 37 90 0.9 0.9 0.00 0.00 0.00 84 1014.8
20240222025612 37 90 0.0 0.0 0.00 0.00 0.00 84 1014.8
20240222025112 37 90 0.0 0.0 0.00 0.00 0.00 84 1014.8
20240222024612 37 90 0.0 0.0 0.00 0.00 0.00 84 1014.8
20240222024111 37 90 0.0 0.0 0.00 0.00 0.00 84 1014.8
20240222023611 36 90 0.0 0.9 0.00 0.00 0.00 84 1015.0
20240222023111 36 90 0.0 0.0 0.00 0.00 0.00 84 1015.0
20240222022611 36 90 0.0 0.9 0.00 0.00 0.00 84 1015.0
20240222022110 37 90 0.0 0.9 0.00 0.00 0.00 84 1015.0
20240222021610 37 90 0.0 0.9 0.00 0.00 0.00 84 1015.1
20240222021110 37 90 0.0 0.0 0.00 0.00 0.00 84 1015.1
20240222020609 37 90 0.0 0.0 0.00 0.00 0.00 84 1015.2
20240222020109 36 90 0.0 0.9 0.00 0.00 0.00 84 1015.3
20240222015609 36 90 0.0 0.9 0.00 0.00 0.00 84 1015.3
20240222015109 36 90 0.0 0.0 0.00 0.00 0.00 84 1015.3
20240222014608 36 90 0.0 0.0 0.00 0.00 0.00 84 1015.3
20240222014108 36 90 0.0 0.0 0.00 0.00 0.00 84 1015.3
20240222013608 36 90 0.0 0.0 0.00 0.00 0.00 84 1015.3
20240222013107 35 90 0.0 0.0 0.00 0.00 0.00 84 1015.4
20240222012607 35 90 0.0 0.0 0.00 0.00 0.00 84 1015.4
20240222012107 35 90 0.0 0.9 0.00 0.00 0.00 84 1015.4
20240222011606 35 90 0.0 0.9 0.00 0.00 0.00 84 1015.5
20240222011106 35 90 0.0 0.9 0.00 0.00 0.00 84 1015.4
20240222010606 35 90 0.9 1.7 0.00 0.00 0.00 83 1015.4
20240222010106 35 90 1.7 1.7 0.00 0.00 0.00 83 1015.6
20240222005605 35 90 0.9 0.9 0.00 0.00 0.00 83 1015.6
20240222005105 35 90 0.0 0.9 0.00 0.00 0.00 83 1015.7
20240222004605 35 90 0.0 1.7 0.00 0.00 0.00 83 1015.7
20240222004104 35 90 0.0 3.5 0.00 0.00 0.00 83 1015.9
20240222003604 35 90 0.0 0.0 0.00 0.00 0.00 83 1015.8
20240222003104 35 90 0.0 0.9 0.00 0.00 0.00 83 1015.7
20240222002604 35 90 0.0 1.7 0.00 0.00 0.00 83 1015.8
20240222002103 35 67 0.0 0.0 0.00 0.00 0.00 83 1015.9
20240222001603 35 67 0.0 0.9 0.00 0.00 0.00 83 1015.9
20240222001103 35 67 0.0 0.0 0.00 0.00 0.00 83 1015.9
20240222000602 35 67 0.0 0.9 0.00 0.00 0.00 83 1015.9
20240222000102 35 67 0.0 0.0 0.00 0.00 0.00 83 1016.0
20240221235602 35 67 0.0 0.0 0.00 0.00 0.00 83 1015.9
20240221235101 35 67 0.0 0.0 0.00 0.00 0.00 82 1016.0
20240221234601 35 67 0.0 0.0 0.00 0.00 0.00 82 1015.9
20240221234101 35 67 0.0 0.9 0.00 0.00 0.00 82 1015.9
20240221233601 35 67 0.0 0.9 0.00 0.00 0.00 81 1015.9
20240221233100 35 67 0.9 0.9 0.00 0.00 0.00 81 1015.9
20240221232600 35 67 0.0 0.0 0.00 0.00 0.00 81 1015.9
20240221232100 35 67 0.0 0.9 0.00 0.00 0.00 81 1016.0
20240221231559 35 67 0.0 0.9 0.00 0.00 0.00 81 1016.1
20240221231059 35 67 0.0 0.0 0.00 0.00 0.00 81 1016.0
20240221230559 36 67 0.0 0.0 0.00 0.00 0.00 81 1016.0
20240221230059 36 67 0.0 1.7 0.00 0.00 0.00 81 1015.9
20240221225558 36 67 0.0 0.0 0.00 0.00 0.00 81 1015.9
20240221225058 36 67 0.0 1.7 0.00 0.00 0.00 81 1015.9
20240221224558 37 45 0.9 1.7 0.00 0.00 0.00 80 1015.9
20240221224057 37 45 0.0 1.7 0.00 0.00 0.00 80 1016.0
20240221223557 37 45 1.7 1.7 0.00 0.00 0.00 80 1016.1
20240221223057 37 45 0.9 1.7 0.00 0.00 0.00 79 1016.1
20240221222557 38 45 1.7 2.6 0.00 0.00 0.00 79 1016.2
20240221222056 38 202 1.7 2.6 0.00 0.00 0.00 79 1016.3
20240221221556 38 292 0.0 1.7 0.00 0.00 0.00 78 1016.3
20240221221056 38 292 0.0 2.6 0.00 0.00 0.00 78 1016.4
20240221220555 39 292 2.6 3.5 0.00 0.00 0.00 78 1016.3
20240221220055 39 292 1.7 4.3 0.00 0.00 0.00 78 1016.5
20240221215555 39 292 1.7 2.6 0.00 0.00 0.00 78 1016.5
20240221215054 39 292 0.9 1.7 0.00 0.00 0.00 78 1016.5
20240221214554 39 292 0.9 0.9 0.00 0.00 0.00 78 1016.5
20240221214054 39 292 0.9 1.7 0.00 0.00 0.00 78 1016.5
20240221213554 40 292 0.9 1.7 0.00 0.00 0.00 78 1016.6
20240221213053 40 292 0.0 1.7 0.00 0.00 0.00 77 1016.5
20240221212553 40 292 0.0 2.6 0.00 0.00 0.00 77 1016.6
20240221212053 41 292 1.7 3.5 0.00 0.00 0.00 78 1016.6
20240221211552 41 292 1.7 3.5 0.00 0.00 0.00 78 1016.6
20240221211052 41 292 0.0 1.7 0.00 0.00 0.00 78 1016.6
20240221210552 41 292 0.9 13.0 0.00 0.00 0.00 78 1016.6
20240221210052 41 315 0.0 1.7 0.00 0.00 0.00 79 1016.7
20240221205551 41 315 1.7 4.3 0.00 0.00 0.00 79 1016.6
20240221205051 41 315 0.0 1.7 0.00 0.00 0.00 79 1016.7
20240221204551 41 315 0.0 0.9 0.00 0.00 0.00 79 1016.7
20240221204050 40 315 0.0 0.0 0.00 0.00 0.00 78 1016.7
20240221203550 40 315 0.0 1.7 0.00 0.00 0.00 79 1016.7
20240221203050 40 315 1.7 1.7 0.00 0.00 0.00 78 1016.7
20240221202549 40 315 1.7 1.7 0.00 0.00 0.00 78 1016.6
20240221202049 40 315 0.9 1.7 0.00 0.00 0.00 78 1016.6
20240221201549 40 315 0.9 2.6 0.00 0.00 0.00 78 1016.6
20240221201049 40 315 0.0 1.7 0.00 0.00 0.00 78 1016.6
20240221200548 40 315 0.0 1.7 0.00 0.00 0.00 78 1016.7
20240221200048 40 315 0.0 1.7 0.00 0.00 0.00 78 1016.7
20240221195548 40 315 1.7 2.6 0.00 0.00 0.00 77 1016.7
20240221195047 40 315 0.0 2.6 0.00 0.00 0.00 77 1016.7
20240221194547 40 315 1.7 4.3 0.00 0.00 0.00 77 1016.7
20240221194047 40 270 0.9 2.6 0.00 0.00 0.00 77 1016.7
20240221193547 40 270 0.0 1.7 0.00 0.00 0.00 76 1016.8
20240221193046 40 270 0.9 3.5 0.00 0.00 0.00 77 1016.9
20240221192546 40 247 0.0 1.7 0.00 0.00 0.00 77 1016.8
20240221192046 40 247 0.9 3.5 0.00 0.00 0.00 76 1016.8
20240221191545 40 225 3.5 5.2 0.00 0.00 0.00 76 1016.9
20240221191045 40 202 3.5 6.1 0.00 0.00 0.00 76 1016.8
20240221190545 40 202 4.3 7.0 0.00 0.00 0.00 76 1016.8
20240221190045 40 225 4.3 8.7 0.00 0.00 0.00 75 1016.8
20240221185544 40 225 3.5 4.3 0.00 0.00 0.00 75 1016.7
20240221185044 40 247 3.5 3.5 0.00 0.00 0.00 75 1016.7
20240221184544 41 225 3.5 6.1 0.00 0.00 0.00 75 1016.7
20240221184043 41 202 2.6 7.8 0.00 0.00 0.00 75 1016.7
20240221183543 41 225 4.3 8.7 0.00 0.00 0.00 75 1016.7
20240221183043 41 225 4.3 6.1 0.00 0.00 0.00 74 1016.6
20240221182543 41 225 3.5 7.0 0.00 0.00 0.00 74 1016.6
20240221182042 41 315 4.3 4.3 0.00 0.00 0.00 73 1016.5
20240221181542 41 292 4.3 4.3 0.00 0.00 0.00 73 1016.6
20240221181042 42 292 1.7 4.3 0.00 0.00 0.00 73 1016.5
20240221180541 42 292 3.5 5.2 0.00 0.00 0.00 73 1016.4
20240221180041 42 292 2.6 6.1 0.00 0.00 0.00 73 1016.4
20240221175541 42 225 5.2 5.2 0.00 0.00 0.00 73 1016.3
20240221175040 43 292 4.3 8.7 0.00 0.00 0.00 73 1016.4
20240221174540 43 225 3.5 5.2 0.00 0.00 0.00 73 1016.4
20240221174040 43 225 4.3 4.3 0.00 0.00 0.00 73 1016.4
20240221173540 43 202 0.9 3.5 0.00 0.00 0.00 72 1016.4
20240221173039 43 202 2.6 5.2 0.00 0.00 0.00 72 1016.4
20240221172539 43 315 1.7 4.3 0.00 0.00 0.00 72 1016.4
20240221172039 43 270 1.7 3.5 0.00 0.00 0.00 71 1016.3
20240221171538 43 292 1.7 4.3 0.00 0.00 0.00 71 1016.3
20240221171038 43 292 2.6 3.5 0.00 0.00 0.00 71 1016.3
20240221170538 44 292 0.9 1.7 0.00 0.00 0.00 71 1016.2
20240221170037 44 292 0.9 2.6 0.00 0.00 0.00 70 1016.2
20240221165537 44 292 0.9 3.5 0.00 0.00 0.00 70 1016.1
20240221165037 44 292 1.7 1.7 0.00 0.00 0.00 70 1016.2
20240221164537 45 292 1.7 2.6 0.00 0.00 0.00 70 1016.2
20240221164036 45 292 1.7 2.6 0.00 0.00 0.00 69 1016.2
20240221163536 45 270 0.9 1.7 0.00 0.00 0.00 69 1016.1
20240221163036 45 270 0.0 1.7 0.00 0.00 0.00 69 1016.1
20240221162535 45 270 0.0 1.7 0.00 0.00 0.00 68 1015.9
20240221162035 45 292 0.9 0.9 0.00 0.00 0.00 68 1016.0
20240221161535 46 292 0.9 3.5 0.00 0.00 0.00 68 1015.9
20240221161035 46 270 0.9 3.5 0.00 0.00 0.00 68 1015.9
20240221160534 46 247 2.6 2.6 0.00 0.00 0.00 68 1015.8
20240221160035 46 247 1.7 3.5 0.00 0.00 0.00 68 1015.8
20240221155534 46 247 1.7 2.6 0.00 0.00 0.00 68 1015.8
20240221155033 46 247 0.0 1.7 0.00 0.00 0.00 68 1015.7
20240221154533 46 247 0.9 2.6 0.00 0.00 0.00 68 1015.7
20240221154033 46 247 0.0 0.9 0.00 0.00 0.00 67 1015.6
20240221153532 46 247 0.0 0.9 0.00 0.00 0.00 67 1015.7
20240221153032 47 247 0.0 1.7 0.00 0.00 0.00 67 1015.6
20240221152532 47 247 0.9 1.7 0.00 0.00 0.00 66 1015.6
20240221152032 47 247 0.9 1.7 0.00 0.00 0.00 66 1015.6
20240221151531 47 247 0.0 1.7 0.00 0.00 0.00 66 1015.6
20240221151031 48 247 1.7 1.7 0.00 0.00 0.00 65 1015.7
20240221150531 48 247 0.0 0.0 0.00 0.00 0.00 65 1015.6
20240221150030 48 247 0.0 1.7 0.00 0.00 0.00 64 1015.7
20240221145530 48 247 0.9 1.7 0.00 0.00 0.00 64 1015.7
20240221145030 48 247 0.0 1.7 0.00 0.00 0.00 64 1015.6
20240221144530 48 247 0.9 1.7 0.00 0.00 0.00 64 1015.6
20240221144029 48 247 0.0 3.5 0.00 0.00 0.00 63 1015.6
20240221143529 47 202 2.6 5.2 0.00 0.00 0.00 63 1015.6
20240221143029 47 292 0.0 3.5 0.00 0.00 0.00 62 1015.6
20240221142528 47 292 1.7 4.3 0.00 0.00 0.00 60 1015.6
20240221142028 47 0 0.9 1.7 0.00 0.00 0.00 60 1015.6
20240221141528 47 292 1.7 3.5 0.00 0.00 0.00 60 1015.6
20240221141028 48 315 1.7 3.5 0.00 0.00 0.00 60 1015.6
20240221140527 48 315 0.0 1.7 0.00 0.00 0.00 60 1015.6
20240221140027 48 292 1.7 4.3 0.00 0.00 0.00 59 1015.7
20240221135527 48 337 0.0 4.3 0.00 0.00 0.00 60 1015.7
20240221135026 48 0 0.9 7.0 0.00 0.00 0.00 59 1015.7
20240221134526 48 315 0.9 5.2 0.00 0.00 0.00 59 1015.7
20240221134026 49 337 2.6 5.2 0.00 0.00 0.00 59 1015.7
20240221133526 49 292 1.7 3.5 0.00 0.00 0.00 60 1015.7
20240221133025 49 270 2.6 3.5 0.00 0.00 0.00 62 1015.8
20240221132525 49 270 2.6 4.3 0.00 0.00 0.00 61 1015.9
20240221132025 48 315 2.6 3.5 0.00 0.00 0.00 60 1015.8
20240221131524 48 22 0.9 2.6 0.00 0.00 0.00 58 1015.9
20240221131024 48 292 0.0 2.6 0.00 0.00 0.00 59 1016.0
20240221130524 49 22 0.0 4.3 0.00 0.00 0.00 57 1016.0
20240221130023 49 292 2.6 2.6 0.00 0.00 0.00 59 1015.9
20240221125523 49 67 0.0 4.3 0.00 0.00 0.00 58 1016.0
20240221125023 49 67 1.7 4.3 0.00 0.00 0.00 59 1016.1
20240221124523 48 67 0.0 2.6 0.00 0.00 0.00 58 1016.1
20240221124022 48 67 1.7 2.6 0.00 0.00 0.00 58 1016.1
20240221123522 49 22 1.7 3.5 0.00 0.00 0.00 58 1016.2
20240221123022 49 292 0.0 3.5 0.00 0.00 0.00 60 1016.2
20240221122521 48 0 0.0 7.0 0.00 0.00 0.00 58 1016.4
20240221122021 49 45 7.0 7.0 0.00 0.00 0.00 56 1016.4
20240221121521 49 22 1.7 5.2 0.00 0.00 0.00 60 1016.4
20240221121021 48 292 1.7 3.5 0.00 0.00 0.00 60 1016.4
20240221120520 48 337 1.7 4.3 0.00 0.00 0.00 59 1016.5
20240221120020 48 45 1.7 4.3 0.00 0.00 0.00 59 1016.5
20240221115520 48 45 1.7 5.2 0.00 0.00 0.00 59 1016.6
20240221115019 48 22 0.0 6.1 0.00 0.00 0.00 61 1016.6
20240221114519 48 0 3.5 5.2 0.00 0.00 0.00 60 1016.7
20240221114019 48 45 3.5 5.2 0.00 0.00 0.00 60 1016.7
20240221113518 48 315 1.7 2.6 0.00 0.00 0.00 63 1016.8
20240221113018 48 0 0.9 3.5 0.00 0.00 0.00 63 1016.8
20240221112518 48 22 1.7 5.2 0.00 0.00 0.00 63 1016.9
20240221112018 48 0 1.7 5.2 0.00 0.00 0.00 63 1016.9
20240221111517 48 0 3.5 4.3 0.00 0.00 0.00 65 1016.9
20240221111017 47 22 0.0 2.6 0.00 0.00 0.00 66 1017.0
20240221110517 47 45 1.7 5.2 0.00 0.00 0.00 64 1017.1
20240221110016 47 45 2.6 3.5 0.00 0.00 0.00 65 1017.0
20240221105516 47 90 3.5 3.5 0.00 0.00 0.00 66 1017.2
20240221105016 47 90 1.7 3.5 0.00 0.00 0.00 67 1017.3
20240221104516 48 67 0.9 5.2 0.00 0.00 0.00 67 1017.3
20240221104015 48 45 1.7 1.7 0.00 0.00 0.00 70 1017.4
20240221103515 47 67 0.0 3.5 0.00 0.00 0.00 70 1017.4
20240221103015 47 22 2.6 2.6 0.00 0.00 0.00 71 1017.5
20240221102514 47 90 0.0 2.6 0.00 0.00 0.00 73 1017.6
20240221102014 46 90 0.9 3.5 0.00 0.00 0.00 73 1017.7
20240221101514 46 292 0.9 4.3 0.00 0.00 0.00 73 1017.7
20240221101013 46 22 3.5 5.2 0.00 0.00 0.00 73 1017.8